Weather History for KAFJ - December, 2012

Change the Weather History Date:

Monday, December 31, 2012

  Actual Average (KHLG) Record (KHLG)
Temperature  
Mean Temperature 25 °F 29 °F  
Max Temperature 33 °F 36 °F 66 °F (1951)
Min Temperature 17 °F 23 °F 14 °F (2001)
Degree Days  
Heating Degree Days 40 36  
Month to date heating degree days 996  
Since 1 July heating degree days 2125  
Cooling Degree Days 0    
Month to date cooling degree days  
Year to date cooling degree days  
Moisture  
Dew Point 22 °F    
Average Humidity 81    
Maximum Humidity 93    
Minimum Humidity 56    
Precipitation  
Precipitation 0.00 in 0.09 in 1.03 in (1990)
Month to date precipitation 2.51  
Sea Level Pressure  
Sea Level Pressure 30.14 in    
Wind  
Wind Speed 7 mph (SW)    
Max Wind Speed 16 mph    
Max Gust Speed 22 mph    
Visibility 9 miles    
Events      
T = Trace of Precipitation, MM = Missing Value Source: NWS Daily Summary

Daily Weather History Graph

Daily Weather History Graph

Search for Another Location

Airport or City:

Trip Planner

Search our weather history database for the weather conditions in past years. The results will help you decide how hot, cold, wet, or windy it might be!

Date:

Astronomy

Dec. 31, 2012 Rise Set
Actual Time 7:43 AM EST 5:05 PM EST
Civil Twilight 7:12 AM EST 5:36 PM EST
Nautical Twilight 6:38 AM EST 6:10 PM EST
Astronomical Twilight 6:05 AM EST 6:43 PM EST
Moon 8:34 PM EST (12/31) 9:23 AM EST (12/31)
Length of Visible Light 10h 23m
Length of Day
9h 22m
Waning Gibbous, 90% of the Moon is Illuminated
Dec 31
Waning Gibbous
Jan 4
Last Quarter
Jan 11
New
Jan 18
First Quarter
Jan 26
Full

Hourly Weather History & Observations

Time (EST) Temp. Windchill Dew Point Humidity Pressure Visibility Wind Dir Wind Speed Gust Speed Precip Events Conditions
12:15 AM 21.2 °F 13.6 °F 17.6 °F 86% 30.32 in 10.0 mi SSW 5.8 mph - N/A   Partly Cloudy
12:35 AM 21.2 °F 12.6 °F 17.6 °F 86% 30.31 in 10.0 mi SSW 6.9 mph - N/A   Clear
12:55 AM 21.2 °F 14.9 °F 17.6 °F 86% 30.30 in 10.0 mi SSW 4.6 mph - N/A   Clear
1:15 AM 19.4 °F 14.3 °F 15.8 °F 86% 30.30 in 10.0 mi SSW 3.5 mph - N/A   Clear
1:35 AM 19.4 °F 14.3 °F 15.8 °F 86% 30.29 in 10.0 mi SSW 3.5 mph - N/A   Clear
1:55 AM 17.6 °F 10.7 °F 15.8 °F 93% 30.28 in 10.0 mi SSW 4.6 mph - N/A   Clear
2:15 AM 17.6 °F 10.7 °F 15.8 °F 93% 30.28 in 10.0 mi SSW 4.6 mph - N/A   Clear
2:35 AM 19.4 °F 11.5 °F 15.8 °F 86% 30.28 in 10.0 mi SW 5.8 mph - N/A   Clear
3:15 AM 19.4 °F 11.5 °F 17.6 °F 93% 30.25 in 10.0 mi SSW 5.8 mph - N/A   Clear
3:35 AM 19.4 °F 12.8 °F 17.6 °F 93% 30.25 in 10.0 mi SSW 4.6 mph - N/A   Clear
3:55 AM 21.2 °F 12.6 °F 17.6 °F 86% 30.25 in 10.0 mi SW 6.9 mph - N/A   Clear
4:15 AM 21.2 °F 12.6 °F 17.6 °F 86% 30.25 in 10.0 mi SSW 6.9 mph - N/A   Clear
4:35 AM 19.4 °F 11.5 °F 17.6 °F 93% 30.24 in 10.0 mi SSW 5.8 mph - N/A   Clear
4:55 AM 19.4 °F 12.8 °F 15.8 °F 86% 30.23 in 10.0 mi SSW 4.6 mph - N/A   Clear
5:15 AM 19.4 °F 11.5 °F 15.8 °F 86% 30.22 in 10.0 mi SSW 5.8 mph - N/A   Clear
5:35 AM 19.4 °F 14.3 °F 17.6 °F 93% 30.23 in 10.0 mi WSW 3.5 mph - N/A   Clear
5:55 AM 19.4 °F 12.8 °F 17.6 °F 93% 30.23 in 10.0 mi SSW 4.6 mph - N/A   Clear
6:15 AM 21.2 °F 14.9 °F 17.6 °F 86% 30.22 in 10.0 mi SSW 4.6 mph - N/A   Clear
6:35 AM 19.4 °F 11.5 °F 17.6 °F 93% 30.21 in 10.0 mi SSW 5.8 mph - N/A   Clear
6:55 AM 21.2 °F 14.9 °F 17.6 °F 86% 30.21 in 10.0 mi SSW 4.6 mph - N/A   Clear
7:15 AM 21.2 °F 14.9 °F 17.6 °F 86% 30.22 in 10.0 mi SW 4.6 mph - N/A   Clear
7:35 AM 23.0 °F 14.7 °F 19.4 °F 86% 30.22 in 10.0 mi SSW 6.9 mph - N/A   Clear
7:55 AM 24.8 °F 16.9 °F 19.4 °F 80% 30.22 in 10.0 mi SW 6.9 mph - N/A   Clear
8:15 AM 24.8 °F 19.1 °F 19.4 °F 80% 30.22 in 10.0 mi SSW 4.6 mph - N/A   Clear
8:35 AM 24.8 °F 16.9 °F 19.4 °F 80% 30.21 in 10.0 mi SSW 6.9 mph - N/A   Partly Cloudy
8:55 AM 26.6 °F 17.5 °F 19.4 °F 74% 30.21 in 10.0 mi SSW 9.2 mph - N/A   Clear
9:15 AM 26.6 °F 16.8 °F 19.4 °F 74% 30.20 in 10.0 mi SW 10.4 mph 16.1 mph N/A   Clear
9:35 AM 26.6 °F 16.8 °F 19.4 °F 74% 30.19 in 10.0 mi SSW 10.4 mph 16.1 mph N/A   Clear
9:55 AM 28.4 °F 17.5 °F 21.2 °F 74% 30.18 in 10.0 mi SSW 13.8 mph 18.4 mph N/A   Partly Cloudy
10:15 AM 28.4 °F 18.5 °F 21.2 °F 74% 30.19 in 10.0 mi SSW 11.5 mph 19.6 mph N/A   Partly Cloudy
10:35 AM 30.2 °F 21.3 °F 19.4 °F 64% 30.18 in 10.0 mi SSW 10.4 mph 16.1 mph N/A   Partly Cloudy
10:55 AM 30.2 °F 21.3 °F 21.2 °F 69% 30.17 in 10.0 mi SW 10.4 mph - N/A   Scattered Clouds
11:15 AM 30.2 °F 20.8 °F 21.2 °F 69% 30.17 in 10.0 mi SW 11.5 mph 20.7 mph N/A   Partly Cloudy
11:35 AM 30.2 °F 20.8 °F 21.2 °F 69% 30.16 in 10.0 mi SSW 11.5 mph 20.7 mph N/A   Partly Cloudy
11:55 AM 32.0 °F 22.5 °F 19.4 °F 60% 30.15 in 10.0 mi SSW 12.7 mph - N/A   Mostly Cloudy
12:15 PM 32.0 °F 23.0 °F 19.4 °F 60% 30.14 in 10.0 mi SSW 11.5 mph - N/A   Mostly Cloudy
12:35 PM 33.8 °F 24.8 °F 19.4 °F 56% 30.12 in 10.0 mi SSW 12.7 mph 18.4 mph N/A   Mostly Cloudy
12:55 PM 33.8 °F 26.4 °F 19.4 °F 56% 30.11 in 10.0 mi SW 9.2 mph 19.6 mph N/A   Mostly Cloudy
1:15 PM 33.8 °F 25.8 °F 19.4 °F 56% 30.10 in 10.0 mi SW 10.4 mph 16.1 mph N/A   Mostly Cloudy
1:35 PM 33.8 °F 26.4 °F 19.4 °F 56% 30.09 in 10.0 mi SSW 9.2 mph - N/A   Overcast
1:55 PM 33.8 °F 24.8 °F 19.4 °F 56% 30.08 in 10.0 mi SW 12.7 mph 17.3 mph N/A   Overcast
2:15 PM 33.8 °F 24.8 °F 19.4 °F 56% 30.07 in 10.0 mi SW 12.7 mph 19.6 mph N/A   Overcast
2:35 PM 33.8 °F 25.3 °F 21.2 °F 60% 30.09 in 10.0 mi SW 11.5 mph - N/A   Mostly Cloudy
2:55 PM 33.8 °F 24.3 °F 21.2 °F 60% 30.08 in 9.0 mi SW 13.8 mph 20.7 mph N/A   Mostly Cloudy
3:15 PM 32.0 °F 23.6 °F 24.8 °F 75% 30.07 in 10.0 mi SW 10.4 mph - N/A   Overcast
3:35 PM 32.0 °F 23.0 °F 24.8 °F 75% 30.07 in 10.0 mi SW 11.5 mph - N/A   Overcast
3:55 PM 32.0 °F 23.6 °F 26.6 °F 80% 30.07 in 4.0 mi SW 10.4 mph 18.4 mph N/A   Overcast
4:15 PM 30.2 °F 22.6 °F 26.6 °F 86% 30.06 in 1.2 mi SSW 8.1 mph - N/A   Overcast
4:35 PM 30.2 °F 25.4 °F 28.4 °F 93% 30.05 in 2.0 mi SSW 4.6 mph - N/A   Overcast
4:55 PM 30.2 °F 22.6 °F 28.4 °F 93% 30.06 in 1.8 mi SW 8.1 mph - N/A   Overcast
5:15 PM 30.2 °F 22.6 °F 28.4 °F 93% 30.07 in 1.8 mi SW 8.1 mph - N/A   Overcast
5:35 PM 30.2 °F 21.9 °F 28.4 °F 93% 30.06 in 5.0 mi SSW 9.2 mph - N/A   Overcast
5:55 PM 30.2 °F 21.9 °F 28.4 °F 93% 30.08 in 2.5 mi SW 9.2 mph - N/A   Overcast
6:15 PM 30.2 °F 20.2 °F 28.4 °F 93% 30.06 in 1.8 mi SW 12.7 mph 19.6 mph N/A   Overcast
6:35 PM 30.2 °F 18.9 °F 26.6 °F 86% 30.06 in 9.0 mi SW 16.1 mph 21.9 mph N/A   Overcast
6:55 PM 30.2 °F 20.8 °F 26.6 °F 86% 30.06 in 6.0 mi SW 11.5 mph 16.1 mph N/A   Overcast
7:15 PM 30.2 °F 21.9 °F 26.6 °F 86% 30.05 in 10.0 mi SW 9.2 mph - N/A   Overcast
7:35 PM 30.2 °F 20.8 °F 26.6 °F 86% 30.05 in 10.0 mi SW 11.5 mph - N/A   Overcast
7:55 PM 30.2 °F 21.9 °F 26.6 °F 86% 30.05 in 10.0 mi SW 9.2 mph - N/A   Overcast
8:15 PM 30.2 °F 21.3 °F 26.6 °F 86% 30.04 in 10.0 mi SW 10.4 mph - N/A   Overcast
8:35 PM 30.2 °F 22.6 °F 26.6 °F 86% 30.04 in 10.0 mi SW 8.1 mph - N/A   Overcast
8:55 PM 30.2 °F 21.3 °F 26.6 °F 86% 30.05 in 10.0 mi SW 10.4 mph 18.4 mph N/A   Overcast
9:15 PM 30.2 °F 20.2 °F 26.6 °F 86% 30.03 in 10.0 mi SW 12.7 mph 18.4 mph N/A   Overcast
9:35 PM 30.2 °F 19.3 °F 26.6 °F 86% 30.04 in 10.0 mi SW 15.0 mph - N/A   Overcast
9:55 PM 30.2 °F 21.3 °F 26.6 °F 86% 30.04 in 10.0 mi WSW 10.4 mph - N/A   Overcast
10:15 PM 30.2 °F 21.3 °F 26.6 °F 86% 30.03 in 10.0 mi SW 10.4 mph 16.1 mph N/A   Overcast
10:35 PM 30.2 °F 22.6 °F 26.6 °F 86% 30.02 in 10.0 mi SW 8.1 mph 16.1 mph N/A   Overcast
10:55 PM 30.2 °F 21.9 °F 26.6 °F 86% 30.03 in 10.0 mi SW 9.2 mph - N/A   Overcast
11:15 PM 30.2 °F 21.9 °F 26.6 °F 86% 30.02 in 10.0 mi SW 9.2 mph - N/A   Overcast
11:35 PM 30.2 °F 21.9 °F 26.6 °F 86% 30.03 in 10.0 mi SW 9.2 mph - N/A   Overcast
11:55 PM 32.0 °F 25.6 °F 26.6 °F 80% 30.03 in 10.0 mi SW 6.9 mph - N/A   Overcast